| time (UTC) | temp F | wind direction | speed knots | gust knots | rain 1hr in | rain 24hr in | rain mn in | humidity % | barometer mb |
| 20260508124506 | 51 | 130 | 0.9 | 2.6 | 0.00 | 0.11 | 0.01 | 90 | 1019.6 |
| 20260508123006 | 47 | 223 | 0.9 | 1.7 | 0.00 | 0.11 | 0.01 | 96 | 1019.4 |
| 20260508121600 | 45 | 164 | 0.9 | 2.6 | 0.00 | 0.11 | 0.01 | 96 | 1019.5 |
| 20260508114556 | 42 | 213 | 0.0 | 2.6 | 0.01 | 0.12 | 0.01 | 96 | 1019.1 |
| 20260508111556 | 39 | 206 | 0.0 | 1.7 | 0.01 | 0.12 | 0.01 | 96 | 1018.5 |
| 20260508110113 | 39 | 46 | 0.0 | 3.5 | 0.01 | 0.12 | 0.01 | 95 | 1018.2 |
| 20260508104550 | 39 | 269 | 0.0 | 1.7 | 0.00 | 0.11 | 0.00 | 95 | 1017.8 |
| 20260508101548 | 39 | 269 | 0.0 | 3.5 | 0.00 | 0.11 | 0.00 | 95 | 1017.5 |
| 20260508100037 | 39 | 253 | 0.0 | 1.7 | 0.00 | 0.11 | 0.00 | 95 | 1017.3 |
| 20260508094538 | 40 | 269 | 0.0 | 0.9 | 0.00 | 0.11 | 0.00 | 95 | 1017.3 |
| 20260508091533 | 40 | 46 | 0.0 | 1.7 | 0.00 | 0.11 | 0.00 | 95 | 1016.8 |
| 20260508090052 | 40 | 279 | 0.9 | 1.7 | 0.00 | 0.11 | 0.00 | 95 | 1016.7 |
| 20260508084531 | 41 | 269 | 0.0 | 0.9 | 0.00 | 0.11 | 0.00 | 95 | 1016.6 |
| 20260508081528 | 42 | 63 | 0.0 | 2.6 | 0.00 | 0.11 | 0.00 | 95 | 1016.5 |
| 20260508080034 | 42 | 72 | 0.0 | 1.7 | 0.00 | 0.11 | 0.00 | 95 | 1016.3 |
| 20260508074533 | 42 | 324 | 0.0 | 1.7 | 0.00 | 0.11 | 0.00 | 95 | 1016.4 |
| 20260508071525 | 43 | 178 | 0.9 | 2.6 | 0.00 | 0.11 | 0.00 | 95 | 1016.2 |
| 20260508070018 | 43 | 89 | 0.0 | 0.9 | 0.00 | 0.11 | 0.00 | 95 | 1016.1 |
| 20260508064516 | 42 | 127 | 0.9 | 2.6 | 0.00 | 0.11 | 0.00 | 95 | 1016.0 |
| 20260508061518 | 43 | 1 | 0.0 | 1.7 | 0.00 | 0.11 | 0.00 | 94 | 1015.8 |
| 20260508060016 | 43 | 46 | 0.0 | 1.7 | 0.00 | 0.11 | 0.00 | 95 | 1016.0 |
| 20260508054514 | 43 | 117 | 0.0 | 1.7 | 0.00 | 0.11 | 0.00 | 94 | 1016.0 |
| 20260508051508 | 44 | 56 | 0.0 | 1.7 | 0.00 | 0.11 | 0.00 | 94 | 1015.6 |
| 20260508050006 | 44 | 63 | 0.0 | 1.7 | 0.00 | 0.11 | 0.00 | 94 | 1015.5 |
| 20260508044507 | 45 | 1 | 0.0 | 2.6 | 0.00 | 0.11 | 0.00 | 94 | 1015.5 |
| 20260508041508 | 45 | 331 | 0.0 | 1.7 | 0.00 | 0.11 | 0.00 | 93 | 1015.2 |
| 20260508040008 | 45 | 1 | 0.0 | 1.7 | 0.00 | 0.11 | 0.11 | 93 | 1015.0 |
| 20260508034503 | 46 | 314 | 1.7 | 4.3 | 0.00 | 0.11 | 0.11 | 93 | 1014.9 |
| 20260508031603 | 46 | 269 | 1.7 | 2.6 | 0.00 | 0.11 | 0.11 | 92 | 1014.8 |
| 20260508030111 | 47 | 135 | 0.9 | 2.6 | 0.00 | 0.16 | 0.11 | 91 | 1014.5 |
| 20260508024553 | 48 | 46 | 0.0 | 2.6 | 0.00 | 0.16 | 0.11 | 90 | 1014.5 |
| 20260508021536 | 50 | 178 | 0.0 | 1.7 | 0.00 | 0.16 | 0.11 | 86 | 1013.8 |
| 20260508020032 | 52 | 223 | 0.0 | 1.7 | 0.00 | 0.17 | 0.11 | 82 | 1013.7 |
| 20260508014533 | 55 | 102 | 0.9 | 4.3 | 0.00 | 0.17 | 0.11 | 71 | 1013.5 |
| 20260508011532 | 56 | 32 | 2.6 | 4.3 | 0.00 | 0.17 | 0.11 | 69 | 1012.7 |
| 20260508010038 | 56 | 348 | 2.6 | 5.2 | 0.00 | 0.20 | 0.11 | 67 | 1012.7 |
| 20260508004528 | 57 | 338 | 0.9 | 4.3 | 0.00 | 0.20 | 0.11 | 67 | 1012.6 |
| 20260508001532 | 57 | 331 | 0.0 | 2.6 | 0.00 | 0.20 | 0.11 | 74 | 1012.4 |
| 20260508000022 | 59 | 46 | 1.7 | 5.2 | 0.00 | 0.20 | 0.11 | 70 | 1012.5 |
| 20260507234520 | 61 | 344 | 2.6 | 10.4 | 0.00 | 0.20 | 0.11 | 69 | 1012.3 |
| 20260507231514 | 61 | 310 | 1.7 | 3.5 | 0.00 | 0.20 | 0.11 | 77 | 1012.1 |
| 20260507230014 | 61 | 46 | 2.6 | 5.2 | 0.00 | 0.20 | 0.11 | 78 | 1011.8 |
| 20260507224514 | 61 | 1 | 0.9 | 2.6 | 0.00 | 0.20 | 0.11 | 87 | 1011.6 |
| 20260507221519 | 59 | 1 | 1.7 | 4.3 | 0.00 | 0.20 | 0.11 | 90 | 1011.2 |
| 20260507220018 | 59 | 298 | 4.3 | 6.1 | 0.00 | 0.20 | 0.11 | 89 | 1011.1 |
| 20260507214514 | 60 | 89 | 1.7 | 4.3 | 0.00 | 0.20 | 0.11 | 89 | 1010.5 |
| 20260507211509 | 61 | 89 | 0.9 | 4.3 | 0.00 | 0.20 | 0.11 | 87 | 1010.1 |
| 20260507210023 | 61 | 117 | 0.9 | 2.6 | 0.00 | 0.20 | 0.11 | 90 | 1009.8 |
| 20260507204508 | 61 | 63 | 0.0 | 3.5 | 0.00 | 0.20 | 0.11 | 90 | 1009.8 |
| 20260507201516 | 61 | 100 | 0.9 | 7.8 | 0.00 | 0.20 | 0.11 | 90 | 1009.6 |
| 20260507200021 | 60 | 53 | 1.7 | 9.6 | 0.03 | 0.20 | 0.11 | 91 | 1009.6 |
| 20260507194511 | 61 | 46 | 1.7 | 6.1 | 0.05 | 0.20 | 0.11 | 91 | 1009.8 |
| 20260507191523 | 61 | 89 | 0.9 | 4.3 | 0.08 | 0.20 | 0.11 | 93 | 1009.8 |
| 20260507190019 | 60 | 197 | 0.9 | 3.5 | 0.07 | 0.19 | 0.10 | 93 | 1010.0 |
| 20260507184513 | 59 | 89 | 0.9 | 2.6 | 0.03 | 0.15 | 0.06 | 92 | 1010.2 |
| 20260507181512 | 61 | 74 | 0.9 | 9.6 | 0.00 | 0.12 | 0.03 | 87 | 1009.9 |
| 20260507180011 | 64 | 89 | 1.7 | 6.1 | 0.00 | 0.13 | 0.03 | 82 | 1009.6 |
| 20260507174514 | 66 | 56 | 0.9 | 6.1 | 0.00 | 0.13 | 0.03 | 80 | 1009.5 |
| 20260507171511 | 67 | 56 | 0.9 | 11.3 | 0.00 | 0.13 | 0.03 | 86 | 1009.8 |
| 20260507170011 | 67 | 49 | 0.9 | 4.3 | 0.00 | 0.13 | 0.03 | 84 | 1009.7 |
| 20260507164508 | 68 | 59 | 0.9 | 6.1 | 0.00 | 0.13 | 0.03 | 87 | 1009.8 |
| 20260507161613 | 67 | 56 | 0.0 | 6.1 | 0.00 | 0.13 | 0.03 | 90 | 1009.8 |
| 20260507160115 | 67 | 117 | 0.0 | 2.6 | 0.00 | 0.13 | 0.03 | 92 | 1009.6 |
| 20260507154556 | 65 | 40 | 0.9 | 2.6 | 0.00 | 0.13 | 0.03 | 93 | 1009.8 |
| 20260507151552 | 67 | 135 | 1.7 | 3.5 | 0.00 | 0.13 | 0.03 | 89 | 1010.0 |
| 20260507150050 | 67 | 206 | 1.7 | 4.3 | 0.00 | 0.13 | 0.03 | 90 | 1010.1 |
| 20260507144557 | 66 | 89 | 0.0 | 2.6 | 0.00 | 0.13 | 0.03 | 93 | 1010.4 |
| 20260507141552 | 64 | 210 | 0.9 | 2.6 | 0.00 | 0.13 | 0.03 | 96 | 1010.5 |
| 20260507140048 | 64 | 127 | 0.0 | 3.5 | 0.00 | 0.13 | 0.03 | 96 | 1010.3 |
| 20260507134549 | 64 | 231 | 0.9 | 2.6 | 0.00 | 0.13 | 0.03 | 96 | 1010.3 |
| 20260507131542 | 63 | 335 | 0.0 | 1.7 | 0.02 | 0.13 | 0.03 | 97 | 1010.3 |
| 20260507130042 | 63 | 89 | 0.0 | 0.9 | 0.02 | 0.13 | 0.03 | 97 | 1010.3 |